Tracking 35275 objects as of 9-Sep-2026
HD Live streaming from Space Station
objects crossing your sky now

COSMOS 1813 DEB


COSMOS 1813 DEB is no longer on orbit


NORAD ID: 17936
Int'l Code: 1987-004ED
Launch date: January 15, 1987
Source: Commonwealth of Independent States (former USSR) (CIS)
Launch site: PLESETSK MISSILE AND SPACE COMPLEX (PKMTR)
Decay date: 1987-11-28

Note: This is SATELLITE DEBRIS
Your satellite tracking list
Your tracking list is empty




NASA's NSSDC Master Catalog

Two Line Element Set (TLE):
1 17936U 87004 ED 87331.46208041  .06555565 +84000-5 +11223-2 0  9997
2 17936 072.7871 245.3743 0004031 099.4559 261.4790 16.32887402044072
Source of the keplerian elements: AFSPC